TimeEST,TemperatureF,Dew PointF,Humidity,Sea Level PressureIn,VisibilityMPH,Wind Direction,Wind SpeedMPH,Gust SpeedMPH,PrecipitationIn,Events,Conditions,WindDirDegrees,DateUTC
12:15 AM,28.4,24.8,86,29.83,10.0,NW,4.6,-,N/A,,Overcast,310,2013-02-24 05:15:00
12:35 AM,28.4,24.8,86,29.83,5.0,NW,5.8,-,N/A,,Overcast,320,2013-02-24 05:35:00
12:55 AM,28.4,24.8,86,29.84,10.0,NW,5.8,-,N/A,,Overcast,320,2013-02-24 05:55:00
1:15 AM,28.4,23.0,80,29.84,10.0,NNW,6.9,-,N/A,,Overcast,340,2013-02-24 06:15:00
1:35 AM,28.4,24.8,86,29.85,10.0,NW,5.8,-,N/A,,Overcast,320,2013-02-24 06:35:00
1:55 AM,28.4,23.0,80,29.85,10.0,NNW,6.9,-,N/A,,Overcast,340,2013-02-24 06:55:00
2:15 AM,28.4,23.0,80,29.86,10.0,NW,6.9,-,N/A,,Overcast,320,2013-02-24 07:15:00
2:35 AM,28.4,21.2,74,29.87,10.0,NW,6.9,-,N/A,,Overcast,310,2013-02-24 07:35:00
2:55 AM,26.6,21.2,80,29.87,10.0,WNW,6.9,-,N/A,,Overcast,300,2013-02-24 07:55:00
3:15 AM,26.6,21.2,80,29.87,10.0,WNW,6.9,-,N/A,,Overcast,300,2013-02-24 08:15:00
3:35 AM,26.6,21.2,80,29.87,10.0,WNW,9.2,-,N/A,,Mostly Cloudy,290,2013-02-24 08:35:00
3:55 AM,26.6,21.2,80,29.88,10.0,WNW,8.1,-,N/A,,Mostly Cloudy,300,2013-02-24 08:55:00
4:15 AM,26.6,21.2,80,29.88,10.0,WNW,8.1,-,N/A,,Overcast,300,2013-02-24 09:15:00
4:35 AM,26.6,21.2,80,29.89,10.0,WNW,10.4,-,N/A,,Overcast,290,2013-02-24 09:35:00
4:55 AM,26.6,21.2,80,29.89,10.0,WNW,8.1,-,N/A,,Overcast,290,2013-02-24 09:55:00
5:15 AM,26.6,21.2,80,29.90,10.0,WNW,6.9,-,N/A,,Overcast,300,2013-02-24 10:15:00
5:35 AM,26.6,21.2,80,29.91,10.0,WNW,8.1,-,N/A,,Overcast,290,2013-02-24 10:35:00
5:55 AM,26.6,21.2,80,29.92,10.0,WNW,8.1,-,N/A,,Overcast,290,2013-02-24 10:55:00
6:15 AM,26.6,21.2,80,29.93,10.0,WNW,9.2,-,N/A,,Overcast,300,2013-02-24 11:15:00
6:35 AM,26.6,21.2,80,29.94,7.0,WNW,8.1,-,N/A,,Overcast,300,2013-02-24 11:35:00
6:55 AM,26.6,21.2,80,29.95,10.0,WNW,6.9,-,N/A,,Overcast,300,2013-02-24 11:55:00
7:15 AM,26.6,21.2,80,29.95,10.0,NW,5.8,-,N/A,,Overcast,320,2013-02-24 12:15:00
7:35 AM,26.6,21.2,80,29.96,10.0,NW,6.9,-,N/A,,Overcast,310,2013-02-24 12:35:00
7:55 AM,26.6,21.2,80,29.97,10.0,NW,6.9,-,N/A,,Overcast,310,2013-02-24 12:55:00
8:15 AM,26.6,21.2,80,29.98,10.0,NW,8.1,-,N/A,,Overcast,310,2013-02-24 13:15:00
8:35 AM,26.6,21.2,80,29.98,10.0,NW,5.8,-,N/A,,Overcast,310,2013-02-24 13:35:00
8:55 AM,26.6,21.2,80,29.99,10.0,WNW,8.1,-,N/A,,Overcast,300,2013-02-24 13:55:00
9:15 AM,26.6,21.2,80,29.99,10.0,NW,5.8,-,N/A,,Overcast,310,2013-02-24 14:15:00
9:35 AM,28.4,21.2,74,30.00,10.0,NNW,5.8,-,N/A,,Overcast,330,2013-02-24 14:35:00
9:55 AM,28.4,21.2,74,30.01,10.0,NW,8.1,-,N/A,,Overcast,320,2013-02-24 14:55:00
10:15 AM,28.4,21.2,74,30.02,10.0,NNW,5.8,-,N/A,,Overcast,330,2013-02-24 15:15:00
10:35 AM,28.4,21.2,74,30.02,10.0,NNW,6.9,-,N/A,,Overcast,340,2013-02-24 15:35:00
10:55 AM,30.2,23.0,75,30.03,10.0,NNW,5.8,-,N/A,,Overcast,330,2013-02-24 15:55:00
11:15 AM,30.2,23.0,75,30.03,10.0,North,6.9,-,N/A,,Overcast,360,2013-02-24 16:15:00
11:35 AM,30.2,23.0,75,30.04,10.0,NNW,9.2,-,N/A,,Overcast,330,2013-02-24 16:35:00
11:55 AM,32.0,23.0,69,30.04,10.0,NNW,6.9,-,N/A,,Overcast,330,2013-02-24 16:55:00
12:15 PM,32.0,23.0,69,30.04,10.0,NNW,6.9,-,N/A,,Overcast,330,2013-02-24 17:15:00
12:35 PM,32.0,23.0,69,30.05,10.0,NNW,9.2,-,N/A,,Overcast,330,2013-02-24 17:35:00
12:55 PM,33.8,21.2,60,30.04,10.0,North,6.9,-,N/A,,Scattered Clouds,360,2013-02-24 17:55:00
1:15 PM,33.8,21.2,60,30.05,10.0,NW,6.9,-,N/A,,Mostly Cloudy,320,2013-02-24 18:15:00
1:35 PM,33.8,21.2,60,30.04,10.0,NW,8.1,-,N/A,,Overcast,310,2013-02-24 18:35:00
1:55 PM,33.8,21.2,60,30.04,10.0,North,6.9,-,N/A,,Overcast,350,2013-02-24 18:55:00
2:15 PM,33.8,19.4,56,30.04,10.0,NW,4.6,-,N/A,,Mostly Cloudy,310,2013-02-24 19:15:00
2:35 PM,33.8,21.2,60,30.04,10.0,West,4.6,-,N/A,,Mostly Cloudy,280,2013-02-24 19:35:00
2:55 PM,33.8,21.2,60,30.04,10.0,West,3.5,-,N/A,,Overcast,260,2013-02-24 19:55:00
3:15 PM,33.8,23.0,65,30.05,10.0,ESE,6.9,-,N/A,,Overcast,110,2013-02-24 20:15:00
3:35 PM,33.8,21.2,60,30.05,10.0,SE,5.8,-,N/A,,Overcast,130,2013-02-24 20:35:00
3:55 PM,33.8,23.0,65,30.06,10.0,SSE,6.9,-,N/A,,Overcast,160,2013-02-24 20:55:00
4:15 PM,33.8,21.2,60,30.07,10.0,SE,4.6,-,N/A,,Overcast,130,2013-02-24 21:15:00
4:35 PM,33.8,23.0,65,30.07,10.0,SSE,4.6,-,N/A,,Overcast,160,2013-02-24 21:35:00
4:55 PM,32.0,24.8,75,30.08,10.0,SSW,5.8,-,N/A,,Overcast,200,2013-02-24 21:55:00
5:15 PM,30.2,24.8,80,30.08,10.0,South,8.1,-,N/A,,Overcast,190,2013-02-24 22:15:00
5:35 PM,30.2,23.0,75,30.09,10.0,South,5.8,-,N/A,,Overcast,190,2013-02-24 22:35:00
5:55 PM,30.2,23.0,75,30.09,10.0,South,4.6,-,N/A,,Overcast,190,2013-02-24 22:55:00
6:15 PM,30.2,23.0,75,30.09,10.0,SSE,3.5,-,N/A,,Overcast,160,2013-02-24 23:15:00
6:35 PM,30.2,23.0,75,30.09,10.0,Calm,Calm,-,N/A,,Overcast,0,2013-02-24 23:35:00
6:55 PM,30.2,23.0,75,30.09,10.0,ESE,3.5,-,N/A,,Overcast,120,2013-02-24 23:55:00
7:15 PM,30.2,23.0,75,30.09,10.0,ESE,4.6,-,N/A,,Overcast,120,2013-02-25 00:15:00
7:35 PM,30.2,24.8,80,30.10,10.0,Calm,Calm,-,N/A,,Overcast,0,2013-02-25 00:35:00
7:55 PM,30.2,24.8,80,30.11,10.0,East,4.6,-,N/A,,Overcast,100,2013-02-25 00:55:00
8:15 PM,30.2,24.8,80,30.11,10.0,ESE,4.6,-,N/A,,Overcast,110,2013-02-25 01:15:00
8:35 PM,28.4,24.8,86,30.11,10.0,East,6.9,-,N/A,,Overcast,100,2013-02-25 01:35:00
8:55 PM,28.4,24.8,86,30.12,10.0,East,5.8,-,N/A,,Overcast,100,2013-02-25 01:55:00
9:15 PM,28.4,24.8,86,30.12,10.0,ESE,4.6,-,N/A,,Overcast,120,2013-02-25 02:15:00
9:35 PM,28.4,23.0,80,30.12,10.0,SE,4.6,-,N/A,,Overcast,130,2013-02-25 02:35:00
9:55 PM,30.2,21.2,69,30.12,10.0,ESE,3.5,-,N/A,,Overcast,120,2013-02-25 02:55:00
10:15 PM,28.4,21.2,74,30.12,10.0,ESE,3.5,-,N/A,,Overcast,120,2013-02-25 03:15:00
10:35 PM,28.4,24.8,86,30.12,10.0,ESE,3.5,-,N/A,,Overcast,110,2013-02-25 03:35:00
10:55 PM,28.4,23.0,80,30.12,10.0,Calm,Calm,-,N/A,,Overcast,0,2013-02-25 03:55:00
11:15 PM,28.4,21.2,74,30.13,10.0,Calm,Calm,-,N/A,,Overcast,0,2013-02-25 04:15:00
11:35 PM,28.4,21.2,74,30.13,10.0,South,3.5,-,N/A,,Overcast,180,2013-02-25 04:35:00
11:55 PM,30.2,21.2,69,30.13,10.0,South,3.5,-,N/A,,Overcast,180,2013-02-25 04:55:00